Weather in Al Houta

Yemen     13°03′23″N   44°52′53″E
temp.,
°C
wind,
m/s
gust,
m/s
humid.,
%
clouds,
%
prec.,
mm/h
press.,
hPa
HPBL,
m
6 may, thu
thu600:00+30e3357100 0.0 1009443
03:00+29e4465100 0.0 1007404
06:00+29ese236790 0.0 1009223
09:00+32ese224864 0.0 1010886
12:00+34se6440100 0.0 10091312
15:00+34se544058 0.0 10071304
18:00+32se434944 0.0 1008769
21:00+30se335662 0.0 1010602
7 may, fri
fri700:00+30e336088 0.0 1010537
03:00+29se1164100 0.0 1009263
06:00+29s1165100 0.0 1010198
09:00+31ese1150100 0.0 1012824
12:00+35sse534091 0.0 10101514
15:00+34s5440100 0.0 10081279
18:00+32s434913 0.0 1009828
21:00+31ssw115449 0.0 1010482
8 may, sat
sat800:00+30se225777 0.0 1010385
03:00+30s226062 0.0 1009187
06:00+29wsw226489 0.0 1010193
09:00+32sw334920 0.0 1010879
12:00+36ssw533820 0.0 10091695
15:00+35ssw75425 0.0 10061089
18:00+32s54509 0.0 1007665
21:00+31se225410 0.0 1009438
9 may, sun
sun900:00+31ese22585 0.0 1009339
03:00+30se11615 0.0 1007126
06:00+29se11623 0.0 1008129
09:00+33sse32495 0.0 1010860
12:00+36sse534024 0.0 10081293
15:00+35s643991 0.0 10061078
18:00+32sse4447100 0.0 1007730
21:00+31ne224943 0.0 1009378
10 may, mon
mon1000:00+32ene1148100 0.0 1008104
03:00+30se2353100 0.0 100769
06:00+30s225667 0.0 100888
09:00+33s214531 0.0 1010767
12:00+36se63366 0.0 10081259
15:00+36sse5334100 0.0 10061181
18:00+33sse32385 0.0 1007650
21:00+32ese21415 0.0 1008238